Location: LDNL
(36.4545°S, 141.6685°E)
Time: 12:54:51
(UTC+10:00)

Explorer 7 - Pass Details

Date: 11 August 2022
Orbit: 482 x 668 km, 50.3° (Epoch: 26 September)

Event Time Altitude Azimuth Distance (km) Brightness Sun altitude
Rises 22:37:12 0° 233° (SW) 2,946 - -55.6°
Reaches altitude 10° 22:40:38 10° 208° (SSW) 1,997 - -56.2°
Maximum altitude 22:43:06 14° 175° (S) 1,701 - -56.7°
Drops below altitude 10° 22:45:31 10° 142° (SE) 1,930 - -57.1°
Sets 22:48:44 0° 116° (ESE) 2,781 - -57.6°
